Temperature
14 15 15 16 16 16 17 17 17 17 17 17 17 17 17 17 17 17 17 17 17 17 17 17 17 17 17 16 16 16 16 16 16 16 15 15 15 15 15 15 15 15 15
14 15 15 15 16 16 16 17 17 17 17 17 17 17 17 17 17 17 17 17 17 17 17 17 17 17 17 16 16 16 16 16 16 16 16 15 15 15 15 15 15 15 14
14 15 15 15 16 16 16 16 17 17 17 17 17 17 17 17 17 17 17 17 17 17 17 17 17 17 16 16 16 16 16 16 16 16 15 15 15 15 15 15 15 14 14
14 14 15 15 15 16 16 16 16 17 17 17 17 17 17 17 17 17 17 17 17 17 17 17 16 16 16 16 16 16 16 16 16 16 15 15 15 15 15 15 14 14 14
14 14 15 15 15 15 15 16 16 16 16 17 17 17 17 17 17 17 17 17 17 16 16 16 16 16 16 16 16 16 16 16 16 15 15 15 15 15 15 15 14 14 14
14 14 14 14 14 15 15 15 15 16 16 16 16 16 16 16 16 16 16 16 16 16 16 16 16 16 16 16 16 16 15 15 15 15 15 15 15 15 14 14 14 14 14
14 13 14 14 14 14 14 15 15 15 15 16 16 16 16 16 16 16 16 16 16 16 16 16 16 16 16 16 16 16 15 15 15 15 15 15 15 14 14 14 14 14 14
13 13 13 13 14 14 14 14 14 15 15 15 15 15 16 16 16 16 16 16 16 16 16 16 16 16 15 15 15 15 15 15 15 15 15 14 14 14 14 14 14 13 13
13 13 13 13 13 13 13 14 14 14 14 14 14 15 15 15 15 15 15 15 15 16 15 15 15 15 15 15 15 15 15 15 15 15 15 14 14 14 14 14 13 13 13
12 12 12 12 13 13 13 13 13 13 14 14 14 14 14 14 14 15 15 15 15 15 15 15 15 15 15 15 15 15 15 14 14 14 14 14 14 14 14 13 13 13 13
12 12 12 12 12 12 12 12 13 13 13 13 13 13 13 13 14 14 14 14 14 14 14 15 14 14 14 14 14 15 14 14 14 14 14 14 14 14 14 13 13 13 13
11 11 11 11 11 12 12 12 12 12 12 12 13 13 13 13 13 13 13 13 13 14 14 14 14 14 14 14 14 14 14 14 14 14 14 14 14 14 13 13 13 13 13
11 11 11 11 11 11 11 11 11 12 12 12 12 12 12 12 12 12 12 13 13 13 13 13 13 13 13 14 14 14 14 14 14 14 14 14 14 14 13 13 13 13 13
11 11 11 11 11 11 11 11 11 11 11 11 11 11 11 11 11 12 12 12 12 12 12 13 13 13 13 13 13 13 13 13 13 13 13 13 13 13 13 13 13 13 13
11 10 10 10 10 10 10 10 10 10 10 10 10 10 10 10 11 11 11 11 11 11 11 12 12 12 12 12 12 13 13 13 13 13 13 13 13 13 13 13 13 13 12
10 10 10 10 10 10 10 10 10 10 9 9 9 9 9 9 10 10 10 10 10 10 11 11 11 11 11 12 12 12 12 12 12 12 13 13 13 13 13 13 13 12 12
10 10 10 10 9 9 9 9 9 9 9 9 9 9 9 9 9 9 9 9 9 9 10 10 10 10 10 11 11 11 11 12 12 12 12 12 12 12 12 12 12 12 12
10 10 9 9 9 9 9 9 8 8 8 8 8 8 8 8 8 8 8 9 9 9 9 9 9 9 10 10 10 11 11 11 11 11 11 12 12 12 12 12 12 12 12
10 10 9 9 9 9 9 8 8 8 8 8 8 8 8 8 8 7 7 8 8 8 8 8 8 8 9 9 9 10 10 10 11 11 11 11 11 11 11 11 12 12 12
10 9 9 9 8 8 8 8 8 8 8 7 7 7 7 7 7 7 7 7 7 7 7 7 8 8 8 8 8 9 10 10 10 10 11 11 11 11 11 11 11 11 11
9 9 9 8 8 8 8 7 7 7 7 7 7 7 7 7 7 6 6 6 6 6 7 7 7 7 7 7 7 8 9 9 10 10 10 10 10 10 10 10 10 11 11
9 9 8 8 8 8 7 7 7 7 7 7 6 6 6 6 6 6 6 6 6 6 6 6 6 6 6 6 6 6 7 8 8 9 9 10 10 10 10 10 10 10 10
9 9 8 8 8 7 7 7 7 6 6 6 6 6 6 6 6 5 5 5 5 5 5 5 5 5 6 6 6 5 6 6 7 8 8 9 9 9 9 9 9 10 9
9 8 8 8 7 7 7 6 6 6 6 6 5 5 5 5 5 5 5 5 5 5 5 5 5 5 5 5 5 6 6 6 6 6 7 8 8 8 9 9 9 9 9
8 8 8 7 7 7 6 6 6 5 5 5 5 5 5 5 5 5 5 4 4 4 4 4 4 4 5 5 5 5 6 6 6 5 6 7 7 8 8 8 9 9 9
8 8 7 7 7 6 6 6 5 5 5 4 4 4 4 4 4 4 4 4 4 4 4 4 4 4 4 5 5 5 5 5 6 6 5 6 6 7 8 8 8 8 8
Wind_Speed
2 3 7 9 11 12 12 12 12 11 10 10 9 8 7 5 4 4 4 5 6 6 7 7 7 7 7 7 7 8 8 9 9 10 10 10 10 10 10 10 10 9 10
2 3 7 9 10 11 12 12 12 11 10 9 9 8 7 6 5 4 3 3 4 5 6 6 6 6 6 6 7 8 8 8 9 10 9 9 9 10 9 10 10 8 9
3 5 7 9 10 11 11 11 12 11 10 9 8 7 6 5 5 4 3 2 2 3 4 5 6 6 6 6 7 8 7 8 9 9 9 8 8 9 9 10 10 10 10
5 6 7 9 10 10 11 11 11 11 11 9 8 7 6 5 4 3 3 2 1 2 3 4 5 5 6 6 7 8 8 8 8 9 8 8 8 9 10 9 10 10 10
6 7 8 10 10 10 10 11 10 10 10 10 9 8 7 6 4 4 3 2 1 1 2 3 4 5 6 7 7 7 8 8 8 8 8 8 8 10 11 10 11 11 11
5 7 8 10 10 10 10 10 10 11 10 10 10 8 7 6 6 5 4 3 2 2 2 2 4 5 6 7 7 7 8 8 7 7 8 9 9 10 11 11 11 11 11
4 7 9 10 10 11 11 10 10 10 10 10 10 10 8 8 7 6 5 4 4 3 3 3 4 5 6 7 7 8 7 8 7 7 8 9 10 12 12 12 12 12 12
5 6 8 9 9 10 10 10 10 10 10 10 10 10 10 9 9 8 7 6 5 5 4 4 4 5 6 7 7 7 8 7 7 8 8 9 12 13 13 14 13 13 13
6 6 7 8 8 9 9 9 10 10 9 10 10 10 11 11 10 9 8 7 6 6 5 5 5 5 6 7 8 7 7 8 6 7 9 9 12 14 14 15 14 14 14
4 4 5 7 8 8 8 9 10 10 10 10 10 10 11 11 11 10 9 8 7 6 6 6 6 6 6 7 8 8 7 7 7 8 8 10 13 14 15 15 15 15 15
3 2 3 4 6 6 7 8 9 9 10 10 9 10 10 9 9 8 9 9 9 8 7 7 7 7 7 7 7 8 7 5 6 7 8 11 13 14 15 15 16 16 16
1 1 2 2 3 4 5 6 7 7 8 8 8 8 8 8 8 8 9 10 10 9 8 7 7 7 6 5 6 7 6 6 6 7 9 13 15 15 15 16 16 16 17
2 1 1 1 2 2 2 3 4 5 6 7 8 7 7 7 7 7 7 8 8 8 6 6 5 5 4 3 3 5 6 6 6 7 10 13 16 17 17 16 17 17 17
3 2 1 1 1 1 2 2 2 3 4 4 6 7 5 4 4 4 4 5 5 6 5 4 3 4 4 4 5 5 6 6 6 7 10 14 16 17 18 18 17 18 19
3 2 2 1 1 1 1 2 2 2 2 3 4 5 5 3 3 3 3 4 4 5 4 3 3 4 4 4 5 5 6 8 8 8 9 14 16 18 18 18 19 19 20
4 3 2 2 2 1 1 2 2 2 2 3 4 5 5 4 3 3 4 4 4 4 4 4 4 5 5 4 6 6 7 7 8 9 9 12 16 18 19 19 19 20 20
4 4 3 3 2 1 2 2 2 2 2 3 4 6 6 5 4 3 3 4 4 6 5 4 4 4 5 5 6 7 6 7 8 9 9 10 12 16 18 19 20 20 21
4 4 4 3 2 2 2 3 2 3 3 3 4 5 6 6 5 4 4 4 6 5 4 4 4 4 5 5 6 6 6 7 8 9 9 9 10 11 15 18 19 20 20
5 4 4 3 3 3 3 3 3 3 3 4 5 5 6 7 7 4 4 5 5 4 4 5 4 4 5 6 6 6 6 7 8 8 9 9 10 10 11 14 17 18 19
5 4 4 4 4 3 2 2 2 3 3 4 4 5 7 7 7 5 5 5 5 4 4 4 5 5 5 6 8 7 7 8 7 8 9 8 8 9 10 11 12 14 17
3 3 3 3 3 2 2 2 3 3 4 4 4 6 7 7 7 6 5 5 5 5 6 6 5 6 5 4 5 6 6 7 8 7 7 7 8 8 9 10 10 10 11
4 4 4 4 4 4 3 3 3 4 4 5 5 6 7 8 8 7 6 6 6 6 6 6 5 5 5 3 3 3 4 4 5 7 7 8 8 7 8 9 9 10 10
5 5 5 5 5 5 5 3 3 3 3 3 5 5 6 8 8 8 8 7 7 6 7 7 7 7 7 5 5 4 3 4 4 4 7 8 8 7 7 7 9 10 11
6 5 5 5 5 5 4 3 4 4 5 6 5 6 7 8 9 9 9 8 8 7 8 8 8 7 7 7 6 6 6 4 3 3 4 6 8 9 9 8 9 10 12
5 4 4 5 5 5 5 5 5 6 6 6 6 7 8 7 8 9 9 8 8 8 8 9 9 8 8 9 7 5 6 6 6 6 7 6 6 7 8 9 8 8 11
4 4 4 4 5 5 5 5 6 7 8 8 8 8 7 7 7 8 8 8 9 8 9 9 10 10 10 10 9 7 7 6 6 6 8 8 8 7 7 8 8 9 9
Wind_Direction
307 334 38 38 39 40 40 40 41 42 45 49 52 56 65 74 90 111 125 139 145 148 150 154 158 159 151 147 146 144 141 143 142 139 137 137 135 131 128 127 123 119 124
196 29 50 46 41 40 40 39 38 39 41 42 45 48 52 60 69 83 105 139 151 159 165 165 167 169 165 159 159 157 151 151 149 145 145 144 141 137 135 136 134 135 132
99 58 54 49 44 40 38 38 38 36 36 37 37 39 41 46 54 63 70 107 148 165 172 174 175 174 169 168 166 166 163 160 158 154 151 148 149 149 147 146 146 142 138
90 63 54 52 46 42 38 36 35 34 31 29 30 29 27 28 34 42 45 60 109 181 188 190 187 177 172 171 174 174 173 170 169 164 157 160 164 164 161 157 157 152 147
75 61 53 52 47 41 36 34 32 30 27 24 22 23 17 14 13 18 14 4 349 266 208 207 201 188 183 183 180 180 178 177 177 173 169 173 177 176 172 167 165 160 157
71 56 51 50 42 37 34 31 29 26 22 20 19 17 14 7 4 358 356 346 320 286 253 221 213 202 196 194 191 190 187 184 180 177 177 181 183 185 182 176 171 168 166
75 58 51 46 39 34 30 27 25 22 19 18 16 13 8 4 359 352 344 338 326 299 265 245 231 220 210 204 202 202 202 195 182 178 184 187 189 192 192 185 179 176 173
87 64 55 46 37 29 25 25 22 19 17 16 13 10 8 2 356 347 340 332 322 310 285 258 249 239 227 214 209 211 210 203 194 188 192 192 197 199 196 191 188 186 182
81 69 51 42 35 26 22 21 20 15 12 10 8 7 5 2 356 349 340 335 325 316 301 281 261 252 240 227 217 214 212 207 195 195 198 198 204 206 202 197 195 193 191
77 67 51 40 34 25 18 15 13 11 9 6 6 5 3 359 352 348 343 336 328 321 312 298 276 264 247 241 229 221 217 208 204 204 203 205 207 209 209 205 201 199 199
64 55 50 38 30 23 20 14 10 7 7 4 0 358 358 355 350 345 342 338 332 323 315 308 292 280 259 246 238 227 217 213 213 211 208 212 213 214 214 212 207 204 204
77 43 59 48 30 24 17 10 7 3 1 359 357 355 354 351 347 343 339 335 333 327 318 310 305 293 273 256 247 230 220 223 215 217 217 218 220 221 221 217 212 209 208
178 151 56 68 33 25 12 7 6 359 355 352 352 351 350 348 345 343 343 336 332 329 326 317 311 302 281 261 249 238 227 222 224 225 225 224 227 227 225 220 216 213 212
173 193 211 141 28 2 8 353 360 357 351 347 342 343 348 347 341 338 336 329 328 325 321 319 312 302 282 267 249 242 234 225 227 228 229 227 229 231 229 224 221 218 216
183 197 209 207 227 321 356 334 351 329 326 329 331 332 331 325 305 314 317 320 318 317 307 297 290 288 281 269 262 252 244 232 228 230 232 231 230 231 231 228 226 224 221
199 209 218 224 227 237 283 288 295 307 311 318 323 315 315 315 306 295 305 305 304 311 300 278 275 274 271 268 264 256 250 242 234 233 234 234 233 232 232 232 231 230 227
204 213 229 235 234 245 266 274 296 295 299 302 300 306 305 302 297 290 285 293 299 307 305 291 281 272 274 269 267 260 253 246 242 237 235 232 233 234 234 234 234 234 232
194 210 237 255 265 260 257 268 276 284 284 286 289 293 296 292 289 286 274 280 294 299 293 286 276 276 276 271 268 265 259 251 243 237 235 233 232 234 234 236 236 237 237
195 206 228 241 247 256 262 266 266 275 273 280 283 286 288 292 286 278 265 275 292 284 276 287 284 265 273 280 272 265 261 251 246 237 232 230 232 234 232 234 235 238 238
199 207 223 238 243 252 271 285 288 285 278 282 278 276 280 288 289 278 267 266 272 270 271 274 280 274 262 272 279 272 263 256 245 237 230 227 228 230 233 235 231 234 237
205 220 232 242 256 258 283 286 288 285 283 282 272 271 274 276 279 272 269 263 259 257 259 263 272 274 271 270 281 282 273 256 244 236 227 223 225 227 232 235 234 232 234
215 227 235 238 248 248 248 252 253 265 271 271 273 277 271 270 273 277 263 260 257 260 261 258 261 263 270 255 253 275 288 280 249 239 229 224 224 223 229 235 235 232 233
223 227 237 243 248 253 253 266 292 304 302 292 283 274 271 272 269 267 262 257 253 250 255 255 247 253 259 254 228 230 244 254 292 247 229 228 225 226 227 229 232 234 235
231 233 238 247 252 256 253 249 258 275 279 275 276 273 276 271 267 264 260 254 252 251 250 252 248 249 244 253 250 238 238 237 252 278 253 232 231 231 228 233 232 232 233
231 233 242 250 256 259 252 244 250 264 269 278 284 280 277 272 267 264 259 254 251 250 251 250 249 248 241 242 250 252 254 250 237 248 267 256 247 235 229 228 229 231 232
240 241 245 251 264 266 261 257 253 262 271 281 284 282 280 275 269 263 264 257 252 250 250 249 246 246 245 243 247 244 242 244 238 238 252 252 253 252 240 232 230 231 229
Height
1515 1515 1514 1514 1514 1513 1513 1513 1513 1513 1513 1514 1514 1514 1515 1515 1516 1516 1517 1517 1517 1517 1518 1518 1518 1518 1518 1518 1518 1518 1518 1518 1518 1518 1519 1519 1519 1519 1519 1518 1518 1518 1518
1514 1514 1514 1514 1513 1513 1513 1513 1513 1513 1513 1513 1514 1514 1514 1515 1515 1516 1516 1516 1516 1517 1517 1517 1517 1517 1517 1518 1518 1518 1518 1518 1518 1518 1518 1519 1519 1519 1518 1518 1518 1518 1518
1513 1513 1513 1513 1513 1513 1512 1512 1512 1512 1512 1513 1513 1513 1513 1514 1514 1515 1515 1515 1515 1515 1516 1516 1516 1516 1517 1517 1517 1517 1517 1517 1517 1517 1518 1518 1518 1518 1518 1518 1518 1518 1518
1513 1513 1513 1512 1512 1512 1511 1511 1511 1511 1511 1511 1512 1512 1512 1512 1513 1513 1513 1514 1514 1514 1514 1514 1515 1515 1515 1515 1516 1516 1516 1516 1516 1516 1517 1517 1517 1517 1517 1517 1518 1518 1518
1512 1512 1512 1512 1511 1511 1510 1510 1510 1510 1510 1510 1510 1510 1510 1511 1511 1511 1512 1512 1512 1512 1513 1513 1513 1513 1513 1514 1514 1514 1515 1515 1515 1515 1515 1516 1516 1516 1516 1517 1517 1517 1517
1511 1511 1511 1510 1510 1509 1509 1508 1508 1508 1508 1508 1508 1508 1508 1508 1508 1509 1509 1509 1510 1510 1510 1511 1511 1511 1511 1512 1512 1513 1513 1513 1514 1514 1514 1514 1515 1515 1515 1515 1516 1516 1516
1510 1510 1510 1509 1509 1508 1507 1507 1506 1506 1506 1505 1505 1505 1505 1506 1506 1506 1506 1506 1507 1507 1508 1508 1508 1509 1509 1509 1510 1510 1511 1511 1512 1512 1512 1513 1513 1514 1514 1514 1514 1515 1515
1509 1509 1508 1508 1507 1506 1506 1505 1504 1504 1503 1503 1503 1503 1502 1502 1503 1503 1503 1503 1503 1504 1504 1505 1505 1506 1506 1507 1507 1508 1508 1509 1509 1510 1510 1511 1511 1512 1512 1512 1512 1513 1513
1508 1507 1507 1506 1505 1505 1504 1503 1502 1502 1501 1500 1500 1500 1499 1499 1499 1499 1499 1500 1500 1500 1501 1501 1502 1502 1503 1504 1504 1505 1505 1506 1506 1507 1508 1508 1509 1509 1510 1510 1510 1511 1511
1506 1506 1505 1504 1504 1503 1502 1501 1500 1499 1499 1498 1497 1497 1497 1496 1496 1496 1496 1496 1496 1496 1497 1497 1498 1498 1499 1500 1501 1501 1502 1503 1503 1504 1505 1505 1506 1506 1507 1508 1508 1508 1509
1505 1504 1503 1503 1502 1501 1500 1499 1498 1497 1496 1495 1495 1494 1494 1493 1493 1493 1492 1492 1492 1493 1493 1493 1494 1494 1495 1496 1496 1497 1498 1499 1499 1500 1501 1502 1503 1503 1504 1504 1505 1505 1506
1503 1502 1502 1501 1500 1499 1498 1497 1495 1494 1493 1493 1492 1491 1491 1490 1489 1489 1489 1489 1488 1489 1489 1489 1489 1490 1491 1491 1492 1493 1494 1494 1495 1496 1497 1498 1499 1500 1500 1501 1502 1502 1503
1501 1500 1500 1499 1497 1496 1495 1494 1493 1492 1491 1490 1489 1488 1487 1487 1486 1486 1485 1485 1485 1484 1485 1485 1485 1485 1486 1486 1487 1488 1489 1490 1490 1491 1492 1494 1495 1496 1496 1497 1498 1498 1499
1499 1498 1498 1497 1495 1494 1492 1491 1490 1488 1487 1486 1486 1485 1484 1483 1482 1482 1481 1481 1480 1480 1480 1480 1480 1481 1481 1482 1482 1483 1484 1484 1485 1486 1487 1489 1490 1491 1492 1493 1494 1494 1495
1497 1496 1495 1494 1493 1491 1490 1488 1487 1486 1485 1483 1482 1481 1480 1479 1478 1478 1477 1477 1476 1476 1476 1476 1476 1476 1476 1476 1477 1478 1478 1479 1480 1481 1482 1483 1484 1486 1487 1488 1489 1490 1491
1494 1494 1493 1492 1491 1489 1488 1486 1485 1483 1482 1481 1480 1478 1477 1476 1474 1474 1473 1472 1472 1471 1471 1471 1471 1471 1471 1471 1472 1472 1473 1474 1474 1475 1476 1477 1479 1480 1481 1483 1484 1485 1486
1492 1491 1490 1489 1488 1487 1485 1484 1482 1481 1479 1478 1476 1475 1473 1472 1471 1469 1469 1468 1467 1467 1467 1466 1466 1466 1466 1466 1466 1466 1467 1467 1468 1469 1470 1471 1473 1474 1475 1477 1478 1480 1481
1489 1489 1488 1487 1485 1484 1482 1481 1479 1478 1476 1475 1473 1471 1470 1468 1467 1465 1464 1463 1463 1463 1462 1462 1461 1461 1460 1460 1460 1460 1461 1461 1462 1462 1464 1465 1466 1468 1469 1470 1472 1474 1475
1486 1486 1485 1483 1482 1481 1479 1477 1476 1474 1473 1471 1469 1468 1466 1464 1463 1461 1460 1459 1459 1458 1458 1457 1456 1456 1455 1454 1454 1454 1454 1454 1455 1456 1457 1458 1460 1461 1463 1464 1465 1467 1469
1483 1483 1481 1480 1479 1477 1475 1474 1472 1470 1469 1467 1465 1464 1462 1460 1459 1457 1455 1454 1454 1453 1452 1452 1452 1451 1450 1450 1449 1448 1448 1448 1448 1449 1450 1451 1453 1454 1456 1457 1459 1461 1463
1479 1479 1478 1476 1475 1473 1471 1469 1467 1465 1464 1462 1461 1459 1458 1456 1454 1452 1450 1449 1449 1448 1447 1447 1446 1445 1445 1445 1444 1442 1441 1442 1441 1442 1443 1445 1446 1448 1449 1451 1452 1454 1456
1476 1475 1474 1473 1471 1470 1468 1466 1464 1462 1459 1458 1456 1454 1453 1451 1449 1447 1446 1444 1443 1442 1442 1442 1441 1440 1439 1440 1440 1439 1436 1435 1434 1435 1437 1438 1440 1441 1443 1444 1446 1447 1449
1472 1471 1470 1469 1467 1466 1464 1462 1459 1457 1455 1453 1450 1448 1447 1446 1444 1442 1441 1439 1438 1437 1436 1436 1436 1435 1434 1435 1436 1436 1434 1431 1429 1428 1429 1431 1433 1434 1436 1438 1439 1441 1443
1468 1468 1467 1465 1464 1462 1460 1457 1455 1452 1449 1447 1445 1443 1441 1440 1438 1436 1435 1433 1432 1431 1430 1430 1430 1430 1429 1428 1429 1430 1430 1428 1428 1423 1423 1425 1427 1428 1429 1431 1432 1434 1436
1465 1464 1463 1461 1460 1458 1455 1453 1450 1448 1445 1442 1440 1437 1435 1433 1431 1430 1428 1426 1425 1424 1423 1423 1423 1423 1423 1422 1422 1422 1422 1423 1422 1422 1418 1417 1419 1421 1422 1424 1425 1427 1429
1461 1460 1459 1457 1455 1453 1451 1448 1446 1443 1440 1437 1434 1431 1428 1426 1424 1423 1421 1420 1418 1417 1416 1416 1415 1416 1416 1415 1415 1415 1416 1416 1415 1415 1414 1412 1412 1413 1415 1417 1418 1420 1422